| time (UTC) | temp F | wind direction | speed knots | gust knots | rain 1hr in | rain 24hr in | rain mn in | humidity % | barometer mb |
| 20260503230017 | 46 | 24 | 0.9 | 2.6 | 0.00 | 0.00 | 0.00 | 96 | 1030.8 |
| 20260503225035 | 46 | 321 | 0.9 | 1.7 | 0.00 | 0.00 | 0.00 | 95 | 1030.8 |
| 20260503224032 | 46 | 16 | 2.6 | 3.5 | 0.00 | 0.00 | 0.00 | 95 | 1030.7 |
| 20260503223029 | 46 | 9 | 0.9 | 1.7 | 0.00 | 0.00 | 0.00 | 95 | 1030.6 |
| 20260503222024 | 46 | 357 | 0.9 | 3.5 | 0.00 | 0.00 | 0.00 | 95 | 1030.6 |
| 20260503221022 | 46 | 23 | 2.6 | 3.5 | 0.00 | 0.00 | 0.00 | 95 | 1030.6 |
| 20260503220019 | 47 | 72 | 0.9 | 1.7 | 0.00 | 0.00 | 0.00 | 95 | 1030.5 |
| 20260503215016 | 46 | 5 | 1.7 | 4.3 | 0.00 | 0.00 | 0.00 | 95 | 1030.5 |
| 20260503214033 | 46 | 329 | 1.7 | 4.3 | 0.00 | 0.00 | 0.00 | 95 | 1030.4 |
| 20260503213031 | 45 | 86 | 1.7 | 2.6 | 0.00 | 0.00 | 0.00 | 95 | 1030.3 |
| 20260503212025 | 45 | 205 | 1.7 | 3.5 | 0.00 | 0.00 | 0.00 | 95 | 1030.4 |
| 20260503211022 | 45 | 336 | 2.6 | 4.3 | 0.00 | 0.00 | 0.00 | 94 | 1030.4 |
| 20260503210019 | 45 | 80 | 0.9 | 2.6 | 0.00 | 0.00 | 0.00 | 94 | 1030.3 |
| 20260503205035 | 45 | 356 | 2.6 | 3.5 | 0.00 | 0.00 | 0.00 | 94 | 1030.2 |
| 20260503204033 | 46 | 297 | 1.7 | 4.3 | 0.00 | 0.00 | 0.00 | 94 | 1030.2 |
| 20260503203029 | 46 | 98 | 0.9 | 1.7 | 0.00 | 0.00 | 0.00 | 94 | 1030.1 |
| 20260503202025 | 46 | 346 | 3.5 | 4.3 | 0.00 | 0.00 | 0.00 | 94 | 1030.0 |
| 20260503201022 | 46 | 84 | 2.6 | 3.5 | 0.00 | 0.00 | 0.00 | 94 | 1030.0 |
| 20260503200019 | 46 | 180 | 1.7 | 4.3 | 0.00 | 0.00 | 0.00 | 94 | 1030.2 |
| 20260503195036 | 47 | 306 | 1.7 | 3.5 | 0.00 | 0.00 | 0.00 | 94 | 1030.3 |
| 20260503194031 | 47 | 145 | 0.9 | 2.6 | 0.00 | 0.00 | 0.00 | 94 | 1030.2 |
| 20260503193027 | 47 | 229 | 1.7 | 3.5 | 0.00 | 0.00 | 0.00 | 93 | 1030.3 |
| 20260503192024 | 47 | 8 | 2.6 | 4.3 | 0.00 | 0.00 | 0.00 | 93 | 1030.4 |
| 20260503191021 | 47 | 102 | 0.9 | 2.6 | 0.00 | 0.00 | 0.00 | 93 | 1030.3 |
| 20260503190017 | 47 | 52 | 0.9 | 2.6 | 0.00 | 0.00 | 0.00 | 93 | 1030.3 |
| 20260503185033 | 47 | 103 | 0.9 | 1.7 | 0.00 | 0.00 | 0.00 | 93 | 1030.2 |
| 20260503184031 | 48 | 82 | 0.9 | 1.7 | 0.00 | 0.00 | 0.00 | 93 | 1030.2 |
| 20260503183026 | 48 | 76 | 0.9 | 1.7 | 0.00 | 0.00 | 0.00 | 93 | 1030.2 |
| 20260503182021 | 48 | 89 | 0.9 | 2.6 | 0.00 | 0.00 | 0.00 | 93 | 1030.1 |
| 20260503181019 | 49 | 87 | 1.7 | 1.7 | 0.00 | 0.00 | 0.00 | 93 | 1030.2 |
| 20260503180033 | 49 | 93 | 1.7 | 2.6 | 0.00 | 0.00 | 0.00 | 93 | 1030.1 |
| 20260503175030 | 48 | 123 | 1.7 | 3.5 | 0.00 | 0.00 | 0.00 | 92 | 1030.1 |
| 20260503174025 | 48 | 97 | 0.9 | 1.7 | 0.00 | 0.00 | 0.00 | 92 | 1030.0 |
| 20260503173021 | 48 | 78 | 0.9 | 1.7 | 0.00 | 0.00 | 0.00 | 92 | 1030.1 |
| 20260503172016 | 49 | 85 | 0.9 | 1.7 | 0.00 | 0.00 | 0.00 | 91 | 1029.9 |
| 20260503171033 | 49 | 55 | 0.9 | 2.6 | 0.00 | 0.00 | 0.00 | 91 | 1030.0 |
| 20260503131025 | 55 | 100 | 0.9 | 1.7 | 0.00 | 0.00 | 0.00 | 83 | 1029.5 |
| 20260503081032 | 66 | 216 | 1.7 | 3.5 | 0.00 | 0.00 | 0.00 | 69 | 1027.7 |
| 20260503072017 | 66 | 244 | 2.6 | 4.3 | 0.00 | 0.00 | 0.00 | 69 | 1027.7 |
| 20260503071033 | 66 | 246 | 2.6 | 5.2 | 0.00 | 0.00 | 0.00 | 68 | 1027.7 |
| 20260503055025 | 67 | 151 | 1.7 | 3.5 | 0.00 | 0.00 | 0.00 | 62 | 1028.0 |
| 20260503054023 | 67 | 205 | 2.6 | 5.2 | 0.00 | 0.00 | 0.00 | 62 | 1028.0 |
| 20260503053019 | 67 | 196 | 2.6 | 5.2 | 0.00 | 0.00 | 0.00 | 62 | 1028.0 |
| 20260503052016 | 67 | 84 | 1.7 | 4.3 | 0.00 | 0.00 | 0.00 | 61 | 1028.2 |
| 20260503051033 | 66 | 87 | 1.7 | 3.5 | 0.00 | 0.00 | 0.00 | 63 | 1028.3 |
| 20260503050030 | 66 | 115 | 1.7 | 3.5 | 0.00 | 0.00 | 0.00 | 64 | 1028.5 |
| 20260503045026 | 66 | 60 | 0.9 | 2.6 | 0.00 | 0.00 | 0.00 | 63 | 1028.7 |
| 20260503044023 | 65 | 262 | 0.9 | 2.6 | 0.00 | 0.00 | 0.00 | 65 | 1028.9 |
| 20260503043019 | 65 | 73 | 0.9 | 3.5 | 0.00 | 0.00 | 0.00 | 65 | 1029.0 |
| 20260503042017 | 65 | 79 | 0.9 | 4.3 | 0.00 | 0.00 | 0.00 | 66 | 1029.1 |
| 20260503041034 | 64 | 107 | 2.6 | 5.2 | 0.00 | 0.00 | 0.00 | 68 | 1029.3 |
| 20260503040030 | 63 | 104 | 1.7 | 3.5 | 0.00 | 0.00 | 0.00 | 69 | 1029.6 |
| 20260503035028 | 63 | 105 | 3.5 | 7.8 | 0.00 | 0.00 | 0.00 | 70 | 1029.8 |
| 20260503034026 | 63 | 116 | 0.9 | 4.3 | 0.00 | 0.00 | 0.00 | 71 | 1029.7 |
| 20260503033023 | 62 | 128 | 1.7 | 4.3 | 0.00 | 0.00 | 0.00 | 71 | 1029.9 |
| 20260503032020 | 62 | 122 | 1.7 | 5.2 | 0.00 | 0.00 | 0.00 | 72 | 1030.0 |
| 20260503031018 | 62 | 129 | 2.6 | 7.0 | 0.00 | 0.00 | 0.00 | 72 | 1029.9 |
| 20260503030035 | 60 | 114 | 2.6 | 7.0 | 0.00 | 0.00 | 0.00 | 74 | 1030.1 |
| 20260503025033 | 61 | 130 | 2.6 | 7.0 | 0.00 | 0.00 | 0.00 | 75 | 1030.2 |
| 20260503024029 | 60 | 123 | 3.5 | 7.8 | 0.00 | 0.00 | 0.00 | 76 | 1030.3 |
| 20260503023027 | 59 | 127 | 3.5 | 5.2 | 0.00 | 0.00 | 0.00 | 78 | 1030.3 |
| 20260503022024 | 58 | 127 | 2.6 | 4.3 | 0.00 | 0.00 | 0.00 | 80 | 1030.5 |
| 20260503021022 | 57 | 135 | 1.7 | 4.3 | 0.00 | 0.00 | 0.00 | 83 | 1030.5 |
| 20260503020019 | 56 | 126 | 2.6 | 5.2 | 0.00 | 0.00 | 0.00 | 86 | 1030.6 |
| 20260503015016 | 56 | 103 | 2.6 | 7.0 | 0.00 | 0.00 | 0.00 | 90 | 1030.6 |
| 20260503014034 | 55 | 104 | 2.6 | 5.2 | 0.00 | 0.00 | 0.00 | 93 | 1030.6 |
| 20260503013030 | 54 | 92 | 2.6 | 6.1 | 0.00 | 0.00 | 0.00 | 95 | 1030.6 |
| 20260503012027 | 54 | 73 | 0.9 | 5.2 | 0.00 | 0.00 | 0.00 | 96 | 1030.6 |
| 20260503011024 | 52 | 80 | 1.7 | 4.3 | 0.00 | 0.00 | 0.00 | 96 | 1030.7 |
| 20260503010022 | 51 | 72 | 2.6 | 5.2 | 0.00 | 0.00 | 0.00 | 97 | 1030.7 |
| 20260503005019 | 51 | 78 | 3.5 | 5.2 | 0.00 | 0.00 | 0.00 | 97 | 1030.7 |
| 20260503004017 | 50 | 75 | 1.7 | 3.5 | 0.00 | 0.00 | 0.00 | 97 | 1030.6 |
| 20260503003034 | 49 | 70 | 1.7 | 4.3 | 0.00 | 0.00 | 0.00 | 97 | 1030.6 |
| 20260503002031 | 48 | 45 | 1.7 | 3.5 | 0.00 | 0.00 | 0.00 | 97 | 1030.6 |
| 20260503001029 | 46 | 26 | 1.7 | 3.5 | 0.00 | 0.00 | 0.00 | 97 | 1030.5 |
| 20260503000025 | 45 | 359 | 1.7 | 4.3 | 0.00 | 0.00 | 0.00 | 97 | 1030.4 |
| 20260502235021 | 43 | 5 | 1.7 | 3.5 | 0.00 | 0.00 | 0.00 | 96 | 1030.3 |
| 20260502234018 | 42 | 48 | 1.7 | 2.6 | 0.00 | 0.00 | 0.00 | 96 | 1030.0 |
| 20260502233016 | 42 | 270 | 0.9 | 2.6 | 0.00 | 0.00 | 0.00 | 96 | 1030.0 |
| 20260502232033 | 42 | 248 | 1.7 | 2.6 | 0.00 | 0.00 | 0.00 | 96 | 1029.9 |
| 20260502231030 | 41 | 15 | 2.6 | 4.3 | 0.00 | 0.00 | 0.00 | 96 | 1029.7 |